This is the latest recevied weather packets stored in our database for station/object KG0HG. If no packets are shown the sender has not sent any weather packets the latest 10 day(s).
| Time | Temp. | Humidity | Pressure | Rain* | Wind** | Luminosity | Snow |
|---|---|---|---|---|---|---|---|
| 1777389346 | 10.56° C | 78% | 1018.1 hPa | 0 mm | - | 117 W/m² | - |
| 1777389045 | 10.56° C | 79% | 1018.1 hPa | 0 mm | - | 105 W/m² | - |
| 1777388741 | 10.56° C | 78% | 1018.1 hPa | 0 mm | - | 94 W/m² | - |
| 1777388438 | 10.56° C | 78% | 1018.4 hPa | 0 mm | - | 100 W/m² | - |
| 1777388132 | 10° C | 78% | 1018 hPa | 0 mm | - | 105 W/m² | - |
| 1777387828 | 10° C | 78% | 1018.3 hPa | 0 mm | - | 103 W/m² | - |
| 1777387526 | 10.56° C | 78% | 1018.4 hPa | 0 mm | - | 90 W/m² | - |
| 1777387221 | 10° C | 79% | 1018.5 hPa | 0 mm | - | 85 W/m² | - |
| 1777386916 | 10° C | 79% | 1018.6 hPa | 0 mm | - | 84 W/m² | - |
| 1777386614 | 10° C | 80% | 1018.8 hPa | 0 mm | - | 78 W/m² | - |
| 1777386310 | 10° C | 80% | 1019.1 hPa | 0 mm | - | 63 W/m² | - |
| 1777386008 | 10° C | 79% | 1018.8 hPa | 0 mm | - | 51 W/m² | - |
| 1777385705 | 10° C | 79% | 1018.8 hPa | 0 mm | - | 48 W/m² | - |
| 1777385402 | 10° C | 80% | 1018.6 hPa | 0 mm | - | 63 W/m² | - |
| 1777385098 | 10° C | 79% | 1018.6 hPa | 0 mm | - | 60 W/m² | - |
| 1777384794 | 10° C | 80% | 1018.8 hPa | 0 mm | - | 49 W/m² | - |
| 1777384491 | 10° C | 79% | 1018.7 hPa | 0 mm | - | 42 W/m² | - |
| 1777384185 | 10° C | 80% | 1018.6 hPa | 0 mm | - | 41 W/m² | - |
| 1777383882 | 9.44° C | 80% | 1018.4 hPa | 0 mm | - | 40 W/m² | - |
| 1777383578 | 9.44° C | 80% | 1018.7 hPa | 0 mm | - | 35 W/m² | - |
| 1777383275 | 9.44° C | 80% | 1018.7 hPa | 0 mm | - | 30 W/m² | - |
| 1777382971 | 9.44° C | 80% | 1018.8 hPa | 0 mm | - | 27 W/m² | - |
| 1777382667 | 9.44° C | 80% | 1018.5 hPa | 0 mm | - | 25 W/m² | - |
| 1777382363 | 9.44° C | 80% | 1018.6 hPa | 0 mm | - | 22 W/m² | - |
| 1777382059 | 9.44° C | 80% | 1018.6 hPa | 0 mm | - | 20 W/m² | - |
* Rain latest hour (hover to see other rain measurements)
** Current wind speed in m/s (hover to see current wind gust speed)